Las Cruces, NM

6:58 AM MST on December 07, 2016 (GMT -0700)
Las Cruces International

Weather History for KLRU - June, 2013

Change the Weather History Date:

Tuesday, June 18, 2013

  Actual Average Record
Temperature  
Mean Temperature 82 °F -  
Max Temperature 96 °F 91 °F 103 °F (2016)
Min Temperature 68 °F 64 °F 60 °F (2003)
Cooling Degree Days 17    
Growing Degree Days 32 (Base 50)    
Moisture  
Dew Point 48 °F    
Average Humidity 36    
Maximum Humidity 63    
Minimum Humidity 11    
Precipitation  
Precipitation 0.00 in - - ()
Sea Level Pressure  
Sea Level Pressure 30.03 in    
Wind  
Wind Speed 9 mph (SE)    
Max Wind Speed 16 mph    
Max Gust Speed 24 mph    
Visibility 10 miles    
Events      
Averages and records for this station are not official NWS values.
T = Trace of Precipitation, MM = Missing Value Source: NWS Daily Summary

Daily Weather History Graph

Daily Weather History Graph

Search for Another Location

Airport or City:

Trip Planner

Search our weather history database for the weather conditions in past years. The results will help you decide how hot, cold, wet, or windy it might be!

Date:

Astronomy

Jun. 18, 2013 Rise Set
Actual Time 6:00 AM MDT 8:16 PM MDT
Civil Twilight 5:32 AM MDT 8:45 PM MDT
Nautical Twilight 4:57 AM MDT 9:20 PM MDT
Astronomical Twilight 4:19 AM MDT 9:57 PM MDT
Moon 3:17 PM MDT (6/18) 1:56 AM MDT (6/18)
Length of Visible Light 15h 12m
Length of Day
14h 16m
Waxing Gibbous, 71% of the Moon is Illuminated
Jun 18
Waxing Gibbous
Jun 23
Full
Jun 29
Last Quarter
Jul 8
New
Jul 15
First Quarter

Hourly Weather History & Observations

Time (MDT) Temp. Heat Index Dew Point Humidity Pressure Visibility Wind Dir Wind Speed Gust Speed Precip Events Conditions
12:15 AM 75.9 °F - 55.8 °F 49% 30.04 in 10.0 mi SSE 11.5 mph - N/A   Clear
12:35 AM 74.7 °F - 55.9 °F 52% 30.03 in 10.0 mi SSE 9.2 mph - N/A   Clear
12:55 AM 73.2 °F - 55.9 °F 55% 30.03 in 10.0 mi SE 6.9 mph - N/A   Clear
1:15 AM 71.8 °F - 55.9 °F 57% 30.04 in 10.0 mi SE 8.1 mph - N/A   Clear
1:35 AM 72.7 °F - 56.3 °F 56% 30.04 in 10.0 mi SE 9.2 mph - N/A   Clear
1:55 AM 72.5 °F - 56.3 °F 57% 30.03 in 10.0 mi SSE 9.2 mph - N/A   Clear
2:15 AM 72.1 °F - 56.3 °F 57% 30.03 in 10.0 mi South 10.4 mph - N/A   Clear
2:35 AM 72.0 °F - 56.3 °F 58% 30.03 in 10.0 mi SSE 8.1 mph - N/A   Clear
2:55 AM 70.0 °F - 56.3 °F 62% 30.04 in 10.0 mi SSE 5.8 mph - N/A   Clear
3:15 AM 69.4 °F - 56.3 °F 63% 30.04 in 10.0 mi SSE 5.8 mph - N/A   Clear
3:35 AM 69.3 °F - 55.9 °F 62% 30.04 in 10.0 mi SE 6.9 mph - N/A   Clear
3:55 AM 68.9 °F - 55.6 °F 62% 30.05 in 10.0 mi SE 6.9 mph - N/A   Clear
4:15 AM 68.9 °F - 55.6 °F 62% 30.04 in 10.0 mi SE 6.9 mph - N/A   Clear
4:35 AM 68.9 °F - 55.4 °F 62% 30.05 in 10.0 mi SE 8.1 mph - N/A   Clear
4:55 AM 68.9 °F - 55.4 °F 62% 30.05 in 10.0 mi SSE 6.9 mph - N/A   Clear
5:15 AM 68.4 °F - 55.4 °F 63% 30.06 in 10.0 mi SSE 6.9 mph - N/A   Clear
5:35 AM 69.3 °F - 54.9 °F 60% 30.07 in 10.0 mi SE 12.7 mph - N/A   Clear
5:55 AM 70.2 °F - 55.2 °F 59% 30.08 in 10.0 mi SE 10.4 mph - N/A   Clear
6:15 AM 69.8 °F - 55.4 °F 60% 30.08 in 10.0 mi SE 10.4 mph - N/A   Clear
6:35 AM 69.8 °F - 55.6 °F 61% 30.08 in 10.0 mi SE 11.5 mph - N/A   Clear
6:55 AM 70.7 °F - 55.4 °F 58% 30.09 in 10.0 mi ESE 13.8 mph 19.6 mph N/A   Clear
7:15 AM 71.6 °F - 55.4 °F 57% 30.09 in 10.0 mi ESE 10.4 mph - N/A   Clear
7:35 AM 72.5 °F - 55.4 °F 55% 30.10 in 10.0 mi SE 11.5 mph - N/A   Clear
7:55 AM 73.4 °F - 55.4 °F 53% 30.11 in 10.0 mi SE 13.8 mph 19.6 mph N/A   Clear
8:15 AM 74.7 °F - 55.4 °F 51% 30.11 in 10.0 mi SE 16.1 mph 19.6 mph N/A   Clear
8:35 AM 75.4 °F - 55.4 °F 50% 30.12 in 10.0 mi ESE 16.1 mph 21.9 mph N/A   Clear
8:55 AM 76.6 °F - 55.4 °F 48% 30.12 in 10.0 mi SE 16.1 mph - N/A   Clear
9:15 AM 77.9 °F - 54.9 °F 45% 30.13 in 10.0 mi ESE 13.8 mph 20.7 mph N/A   Clear
9:35 AM 79.0 °F - 54.5 °F 43% 30.13 in 10.0 mi SE 12.7 mph - N/A   Clear
9:55 AM 80.2 °F 80.2 °F 54.7 °F 41% 30.12 in 10.0 mi ESE 13.8 mph 19.6 mph N/A   Clear
10:15 AM 81.1 °F 80.8 °F 54.7 °F 40% 30.12 in 10.0 mi ESE 13.8 mph 19.6 mph N/A   Clear
10:35 AM 82.4 °F 81.4 °F 53.8 °F 37% 30.12 in 10.0 mi ESE 12.7 mph 19.6 mph N/A   Clear
10:55 AM 82.9 °F 81.8 °F 53.2 °F 36% 30.12 in 10.0 mi SE 13.8 mph 19.6 mph N/A   Clear
11:15 AM 84.4 °F 82.8 °F 53.1 °F 34% 30.11 in 10.0 mi ESE 10.4 mph 16.1 mph N/A   Clear
11:35 AM 86.0 °F - 52.7 °F 32% 30.11 in 10.0 mi SE 13.8 mph 18.4 mph N/A   Clear
11:55 AM 86.4 °F - 51.4 °F 30% 30.10 in 10.0 mi SSE 10.4 mph 16.1 mph N/A   Clear
12:15 PM 86.0 °F - 50.5 °F 29% 30.10 in 10.0 mi ESE 9.2 mph - N/A   Clear
12:35 PM 88.3 °F - 52.0 °F 29% 30.09 in 10.0 mi SE 9.2 mph - N/A   Clear
12:55 PM 88.9 °F - 49.6 °F 26% 30.08 in 10.0 mi SSE 10.4 mph 16.1 mph N/A   Clear
1:15 PM 90.7 °F - 50.7 °F 25% 30.07 in 10.0 mi East 11.5 mph 20.7 mph N/A   Clear
1:35 PM 90.9 °F - 49.6 °F 24% 30.06 in 10.0 mi ESE 13.8 mph 20.7 mph N/A   Clear
1:55 PM 91.9 °F - 48.0 °F 22% 30.05 in 10.0 mi ESE 11.5 mph 17.3 mph N/A   Clear
2:15 PM 92.5 °F - 46.6 °F 21% 30.05 in 10.0 mi SE 11.5 mph - N/A   Clear
2:35 PM 93.4 °F - 45.7 °F 19% 30.04 in 10.0 mi SE 13.8 mph 19.6 mph N/A   Clear
2:55 PM 93.4 °F - 46.0 °F 20% 30.03 in 10.0 mi SE 10.4 mph - N/A   Clear
3:15 PM 94.6 °F - 42.6 °F 17% 30.03 in 10.0 mi South 6.9 mph 23.0 mph N/A   Clear
3:35 PM 95.7 °F - 43.5 °F 17% 30.02 in 10.0 mi ESE 4.6 mph - N/A   Scattered Clouds
3:55 PM 94.8 °F - 43.3 °F 17% 30.01 in 10.0 mi South 8.1 mph - N/A   Scattered Clouds
4:15 PM 95.7 °F - 43.2 °F 16% 30.00 in 10.0 mi SSW 4.6 mph - N/A   Scattered Clouds
4:35 PM 94.8 °F - 43.2 °F 17% 29.99 in 10.0 mi South 9.2 mph - N/A   Scattered Clouds
4:55 PM 96.1 °F - 43.2 °F 16% 29.98 in 10.0 mi SSE 11.5 mph 17.3 mph N/A   Scattered Clouds
5:15 PM 96.1 °F - 41.7 °F 15% 29.98 in 10.0 mi SSE 6.9 mph 16.1 mph N/A   Clear
5:35 PM 95.2 °F - 41.7 °F 16% 29.96 in 10.0 mi SE 8.1 mph - N/A   Scattered Clouds
5:55 PM 95.9 °F - 39.0 °F 14% 29.95 in 10.0 mi South 8.1 mph - N/A   Scattered Clouds
6:15 PM 96.8 °F - 32.9 °F 11% 29.95 in 10.0 mi WSW 9.2 mph 24.2 mph N/A   Clear
6:35 PM 95.7 °F - 32.5 °F 11% 29.95 in 10.0 mi SSE 3.5 mph - N/A   Clear
6:55 PM 93.6 °F - 42.1 °F 17% 29.95 in 10.0 mi Calm Calm - N/A   Clear
7:15 PM 93.7 °F - 39.6 °F 15% 29.95 in 10.0 mi ENE 3.5 mph - N/A   Clear
7:35 PM 93.4 °F - 37.8 °F 14% 29.95 in 10.0 mi ESE 3.5 mph - N/A   Clear
7:55 PM 91.6 °F - 37.8 °F 15% 29.95 in 10.0 mi ESE 3.5 mph - N/A   Clear
8:15 PM 89.6 °F - 37.4 °F 16% 29.94 in 10.0 mi ESE 4.6 mph - N/A   Clear
8:35 PM 87.4 °F - 38.5 °F 18% 29.94 in 10.0 mi ESE 5.8 mph - N/A   Clear
8:55 PM 85.8 °F - 38.1 °F 18% 29.94 in 10.0 mi ESE 4.6 mph - N/A   Clear
9:15 PM 85.6 °F - 36.1 °F 17% 29.94 in 10.0 mi SSE 4.6 mph - N/A   Clear
9:35 PM 84.9 °F - 32.0 °F 15% 29.95 in 10.0 mi South 4.6 mph - N/A   Clear
9:55 PM 85.1 °F - 31.8 °F 15% 29.96 in 10.0 mi SSW 4.6 mph - N/A   Clear
10:15 PM 83.1 °F - 32.0 °F 16% 29.97 in 10.0 mi South 4.6 mph - N/A   Clear
10:35 PM 82.8 °F - 32.9 °F 17% 29.98 in 10.0 mi SSW 5.8 mph - N/A   Clear
10:55 PM 81.5 °F - 35.6 °F 19% 29.98 in 10.0 mi SW 6.9 mph - N/A   Clear
11:15 PM 83.3 °F - 48.2 °F 29% 29.99 in 10.0 mi SE 12.7 mph - N/A   Clear
11:35 PM 82.6 °F - 48.6 °F 30% 29.99 in 10.0 mi SE 8.1 mph - N/A   Clear
11:55 PM 81.5 °F - 49.5 °F 33% 29.99 in 10.0 mi SE 6.9 mph - N/A   Clear